[[{"header":{"parameterUnit":"m.s-1","parameterCategory":1,"la1":30.2991,"la2":30.254,"lo1":-89.0895,"lo2":-89.0444,"dy":0.0017,"dx":0.0017,"nx":28,"ny":28,"refTime":"2025-03-05T09:00:00:Z","depth":0,"parameterNumber":2,"parameterNumberName":"U-component_of_WINDS"},"data":[0,0,0,0,0,0,0,0,0,0,0,0,0,0,0,0,0,0,0,0,0,0,0,0,0,0,0,0,0,0,0,0,0,0,0,0,0,0,0,0,0,0,0,0,0,0,0,0,0,0,0,0,0,0,0,0,0,0,1.9865,1.9866,0,1.9922,1.9922,1.9923,1.9929,1.9928,1.9927,1.9927,1.9986,1.9988,1.999,0,0,0,0,0,0,0,0,0,0,0,0,0,1.9763,1.9765,1.9865,1.9866,1.9866,1.9922,1.9922,1.9923,1.9929,1.9928,1.9927,1.9927,1.9985,1.9988,1.999,0,0,0,0,0,0,0,0,0,0,0,0,0,1.9813,1.9766,1.9865,1.9876,1.9877,1.9921,1.9922,1.9923,1.9929,1.9928,1.9927,1.9926,1.9984,1.9987,1.999,2.0028,0,0,2.0,2.0002,0,0,0,0,0,0,0,0,1.981,1.9816,1.9873,1.9875,1.9877,1.9917,1.9908,1.9958,1.9929,1.9909,1.9927,1.9926,1.9964,1.9969,1.9981,2.0031,2.0033,2.0,2.0002,2.0004,2.0005,0,0,0,0,0,0,0,1.9806,1.9814,1.9887,1.9874,1.9876,1.9878,1.9884,1.9918,1.9941,1.9911,1.9911,1.9918,1.9964,1.9978,1.9983,2.0034,2.0,2.0003,2.0005,2.0006,2.0119,2.012,0,0,0,0,0,0,1.9801,1.9811,1.9886,1.9889,1.984,1.9881,1.9888,1.9905,1.994,1.9945,1.9919,1.9918,1.9973,1.9979,1.9985,2.0032,2.0004,2.0007,2.0009,2.0118,2.0119,2.0121,0,0,0,0,0,0,1.9798,1.9807,1.9883,1.985,1.986,1.9884,1.9903,1.9907,1.992,1.9946,1.9951,1.9928,1.9973,1.998,2.0017,2.0034,2.0008,2.0011,2.0117,2.0118,2.012,2.0126,0,0,0,0,0,0,1.9796,1.9806,1.982,1.9851,1.9862,1.9915,1.9904,1.9908,1.9926,1.9925,1.9956,1.9961,1.9972,2.0013,2.0021,2.0038,2.0014,2.0115,2.0118,2.0119,2.0124,2.0128,2.013,0,0,0,0,0,1.9792,1.982,1.9821,1.983,1.988,1.9915,1.9922,1.9935,1.9927,1.9942,1.9959,1.996,2.0031,2.0016,2.0025,2.0044,2.0114,2.0117,2.0119,2.0123,2.0127,2.013,0,0,0,0,0,0,1.9791,1.9824,1.9826,1.9864,1.9887,1.9916,1.9935,1.9938,1.9964,1.9963,1.9978,1.9985,2.0022,2.0037,2.002,2.0083,2.0072,2.0076,2.0072,2.0076,2.0079,2.0074,2.0016,0,0,0,0,0,1.9795,1.9821,1.9848,1.9879,1.9891,1.9911,1.9927,1.9935,1.996,1.9969,1.9989,2.0013,2.0041,2.0059,2.0086,2.0127,2.0134,2.0144,2.0147,2.0149,2.0153,2.0177,2.0182,2.0129,2.0129,2.0128,0,0,1.9804,1.9825,1.984,1.988,1.9899,1.9926,1.9919,1.9948,1.9969,1.9974,2.001,2.0026,2.0054,2.0093,2.0112,2.0107,2.017,2.0152,2.0154,2.0157,2.018,2.0185,2.0189,2.013,2.013,2.013,0,0,1.9834,1.9852,1.9881,1.99,1.9928,1.9942,1.9949,1.9978,1.9989,2.0026,2.0031,2.0056,2.0103,2.0124,2.014,2.018,2.0182,2.0188,2.0204,2.0227,2.0231,2.0235,2.025,2.0255,2.0192,2.0192,2.0192,0,1.9841,1.9882,1.9895,1.9924,1.9942,1.9948,1.9978,1.9996,2.0032,2.0044,2.0039,2.0099,2.0119,2.0164,2.0173,2.0186,2.0195,2.0185,2.0229,2.0233,2.0237,2.0252,2.0257,2.0192,2.0192,2.0192,2.0192,0,1.989,1.9919,1.9938,1.9973,1.9993,2.0022,2.0041,2.006,2.0066,2.0081,2.0119,2.0143,2.0175,2.0187,2.0193,2.0233,2.0229,2.0226,2.0216,2.0243,2.0257,2.0262,2.0193,2.0193,2.0193,2.0193,0,0,1.992,1.9963,1.997,1.9987,2.0019,2.0042,2.0072,2.0104,2.012,2.0146,2.0172,2.0213,2.0211,2.0229,2.0239,2.0259,2.029,2.0254,2.0255,2.026,2.0337,2.0339,2.0345,2.0292,2.0293,2.0294,2.0335,0,1.9955,2.0008,2.0021,2.0067,2.0094,2.0101,2.0128,2.0151,2.0166,2.0192,2.0208,2.0237,2.0232,2.0243,2.0264,2.0282,2.0306,2.0279,2.0318,2.0319,2.031,2.0352,2.0355,2.0392,2.034,2.0341,2.0342,0,2.0001,2.0028,2.0076,2.0107,2.0119,2.0142,2.0174,2.0198,2.0225,2.0235,2.0256,2.0264,2.0297,2.0284,2.033,2.0312,2.0329,2.034,2.0342,2.0346,2.0332,2.0358,2.0404,2.041,2.035,2.035,2.0349,0,2.0019,2.0067,2.0103,2.0117,2.0153,2.017,2.0186,2.0212,2.0231,2.0259,2.0271,2.0302,2.0319,2.0344,2.036,2.0349,2.0405,2.0394,2.0414,2.0414,2.0426,2.0425,2.0475,2.0436,2.0436,2.0436,2.0435,0,2.0057,2.0086,2.0112,2.0134,2.0168,2.0183,2.0217,2.0233,2.0257,2.0283,2.0291,2.0315,2.0335,2.0362,2.0375,2.0412,2.042,2.0429,2.0432,2.0428,2.0427,2.0439,2.0437,2.0437,2.0437,2.0436,2.0436,0,2.0082,2.01,2.014,2.0172,2.018,2.0204,2.0231,2.0254,2.0269,2.0302,2.031,2.0335,2.0368,2.0386,2.0427,2.0436,2.0477,2.0479,2.0468,2.0469,2.0489,2.0488,2.055,2.0559,2.0513,2.0513,2.0514,0,2.0105,2.0128,2.0162,2.018,2.0197,2.0225,2.0245,2.0262,2.0282,2.0316,2.0334,2.0367,2.0395,2.0447,2.0469,2.0501,2.0504,2.0523,2.0508,2.0505,2.0505,2.0503,2.0506,2.0526,2.0526,2.0527,2.0527,0,2.0144,2.0152,2.0179,2.0211,2.0234,2.0259,2.0284,2.0299,2.032,2.0342,2.0376,2.0397,2.044,2.0473,2.0507,2.0525,2.053,2.0531,2.0538,2.0535,2.0528,2.0533,2.0475,2.053,2.053,2.0529,2.0529,2.0529,2.0169,2.019,2.0218,2.0249,2.027,2.0294,2.0317,2.0335,2.0363,2.0399,2.0408,2.0443,2.0472,2.0518,2.0536,2.0565,2.0562,2.0571,2.0574,2.0576,2.0577,2.0523,2.0571,2.0571,2.0571,2.0571,2.0571,0,2.0209,2.0227,2.0256,2.0291,2.0316,2.0318,2.0347,2.0367,2.0399,2.0425,2.0452,2.0491,2.0524,2.0549,2.0583,2.0601,2.0604,2.0609,2.0608,2.0613,2.0578,2.0569,2.0606,2.0606,2.0606,2.0606,2.0606,2.0606,2.0232,2.0269,2.0281,2.0328,2.0347,2.0382,2.0398,2.0421,2.0442,2.0485,2.0512,2.0528,2.0554,2.059,2.0621,2.0628,2.064,2.0645,2.0652,2.0619,2.0615,2.0611,2.0603,2.0647,2.0647,2.0684,2.0685,2.0685]},{"header":{"parameterUnit":"m.s-1","parameterCategory":1,"la1":30.2991,"la2":30.254,"lo1":-89.0895,"lo2":-89.0444,"dy":0.0017,"dx":0.0017,"nx":28,"ny":28,"refTime":"2025-03-05T09:00:00:Z","depth":0,"parameterNumber":3,"parameterNumberName":"V-component_of_WINDS"},"data":[0,0,0,0,0,0,0,0,0,0,0,0,0,0,0,0,0,0,0,0,0,0,0,0,0,0,0,0,0,0,0,0,0,0,0,0,0,0,0,0,0,0,0,0,0,0,0,0,0,0,0,0,0,0,0,0,0,0,-2.3567,-2.3568,0,-2.3655,-2.3656,-2.3657,-2.3696,-2.3696,-2.3696,-2.3696,-2.3783,-2.3785,-2.3788,0,0,0,0,0,0,0,0,0,0,0,0,0,-2.3432,-2.3434,-2.3567,-2.3568,-2.3569,-2.3655,-2.3656,-2.3657,-2.3696,-2.3696,-2.3696,-2.3696,-2.3782,-2.3785,-2.3788,0,0,0,0,0,0,0,0,0,0,0,0,0,-2.3502,-2.3435,-2.3567,-2.3599,-2.3603,-2.3655,-2.3656,-2.3657,-2.3696,-2.3696,-2.3696,-2.3696,-2.3781,-2.3785,-2.3788,-2.3814,0,0,-2.3799,-2.3801,0,0,0,0,0,0,0,0,-2.3498,-2.3507,-2.3593,-2.3597,-2.3601,-2.3665,-2.364,-2.371,-2.3696,-2.3661,-2.3696,-2.3696,-2.3744,-2.375,-2.3767,-2.3818,-2.3821,-2.38,-2.3802,-2.3803,-2.3804,0,0,0,0,0,0,0,-2.3493,-2.3504,-2.3602,-2.3594,-2.3599,-2.3609,-2.3619,-2.3654,-2.3702,-2.3664,-2.3667,-2.3677,-2.3746,-2.3763,-2.3769,-2.3823,-2.38,-2.3803,-2.3805,-2.3806,-2.3902,-2.3903,0,0,0,0,0,0,-2.3483,-2.3499,-2.3599,-2.3604,-2.3548,-2.3611,-2.3622,-2.3644,-2.3701,-2.371,-2.3677,-2.3678,-2.3757,-2.3765,-2.3772,-2.3808,-2.3803,-2.3807,-2.3809,-2.3902,-2.3902,-2.3903,0,0,0,0,0,0,-2.348,-2.3492,-2.3595,-2.3553,-2.3567,-2.3614,-2.3638,-2.3646,-2.3664,-2.3712,-2.372,-2.3686,-2.3757,-2.3767,-2.3804,-2.3812,-2.3808,-2.3812,-2.3901,-2.3902,-2.3903,-2.3879,0,0,0,0,0,0,-2.3476,-2.3491,-2.35,-2.3553,-2.3569,-2.3625,-2.3639,-2.3648,-2.367,-2.3673,-2.3723,-2.3731,-2.3758,-2.3799,-2.3808,-2.3817,-2.3815,-2.3901,-2.3902,-2.3902,-2.3879,-2.3878,-2.3878,0,0,0,0,0,-2.3471,-2.3489,-2.3501,-2.3513,-2.3582,-2.3626,-2.3635,-2.3667,-2.3671,-2.3682,-2.3713,-2.3729,-2.3809,-2.3802,-2.3813,-2.3823,-2.3901,-2.3901,-2.3902,-2.3879,-2.3878,-2.3878,0,0,0,0,0,0,-2.3434,-2.3496,-2.351,-2.3545,-2.358,-2.3632,-2.3647,-2.3665,-2.3699,-2.37,-2.3737,-2.3748,-2.3782,-2.3806,-2.3797,-2.3852,-2.3857,-2.386,-2.3835,-2.3835,-2.3834,-2.3828,-2.3818,0,0,0,0,0,-2.3431,-2.3461,-2.3513,-2.3539,-2.3556,-2.3598,-2.3618,-2.3641,-2.3678,-2.3693,-2.3726,-2.3761,-2.3795,-2.3816,-2.3849,-2.3883,-2.3895,-2.3895,-2.3894,-2.3894,-2.3896,-2.3918,-2.392,-2.3906,-2.3906,-2.3905,0,0,-2.3422,-2.346,-2.3476,-2.3533,-2.3562,-2.3594,-2.361,-2.3642,-2.3666,-2.3697,-2.3735,-2.3761,-2.3803,-2.3839,-2.3856,-2.386,-2.3903,-2.3895,-2.3894,-2.3897,-2.3919,-2.3921,-2.3922,-2.3906,-2.3906,-2.3906,0,0,-2.3424,-2.3455,-2.3481,-2.3512,-2.3557,-2.3586,-2.3592,-2.3643,-2.3662,-2.3701,-2.3726,-2.3755,-2.3811,-2.3841,-2.3863,-2.388,-2.3897,-2.3889,-2.3886,-2.3908,-2.3909,-2.391,-2.3918,-2.392,-2.3891,-2.3891,-2.3891,0,-2.3408,-2.3456,-2.3492,-2.3524,-2.3548,-2.3581,-2.3608,-2.3636,-2.3689,-2.3706,-2.3709,-2.3783,-2.3813,-2.3858,-2.3862,-2.3879,-2.3888,-2.3884,-2.3906,-2.3907,-2.3909,-2.3917,-2.392,-2.389,-2.389,-2.3891,-2.3891,0,-2.3435,-2.3469,-2.3485,-2.3539,-2.3565,-2.3594,-2.3635,-2.3657,-2.3678,-2.3706,-2.3747,-2.3785,-2.3828,-2.384,-2.3859,-2.3888,-2.3889,-2.3899,-2.3904,-2.3909,-2.3917,-2.392,-2.3889,-2.3889,-2.3889,-2.389,0,0,-2.3414,-2.349,-2.3495,-2.3522,-2.3576,-2.3603,-2.3634,-2.3678,-2.3698,-2.3734,-2.3762,-2.3811,-2.3821,-2.3847,-2.387,-2.3888,-2.3902,-2.3896,-2.3898,-2.3898,-2.394,-2.3933,-2.3936,-2.3914,-2.3915,-2.3915,-2.3937,0,-2.3425,-2.3484,-2.3518,-2.3563,-2.3596,-2.3629,-2.3656,-2.3693,-2.3721,-2.3753,-2.3783,-2.3818,-2.3828,-2.3844,-2.3864,-2.3896,-2.3912,-2.3895,-2.3941,-2.3943,-2.3931,-2.394,-2.3933,-2.3951,-2.394,-2.3941,-2.3941,0,-2.3444,-2.3483,-2.3532,-2.3586,-2.3601,-2.3625,-2.367,-2.37,-2.3743,-2.3762,-2.3792,-2.3816,-2.3852,-2.3854,-2.3904,-2.3893,-2.3914,-2.3933,-2.3935,-2.3941,-2.3943,-2.3948,-2.3958,-2.3961,-2.3946,-2.3946,-2.3945,0,-2.3426,-2.349,-2.3529,-2.355,-2.3613,-2.363,-2.3657,-2.37,-2.3726,-2.3764,-2.3782,-2.3823,-2.3846,-2.3878,-2.3913,-2.3911,-2.3961,-2.3965,-2.3978,-2.3978,-2.3988,-2.3987,-2.4002,-2.3999,-2.3999,-2.3999,-2.3999,0,-2.3435,-2.3464,-2.3523,-2.3546,-2.358,-2.362,-2.3653,-2.3682,-2.3721,-2.3752,-2.3781,-2.3809,-2.3853,-2.3887,-2.3914,-2.3953,-2.3962,-2.398,-2.3987,-2.3978,-2.3976,-2.3993,-2.3993,-2.3999,-2.3999,-2.3999,-2.3999,0,-2.3421,-2.3461,-2.3505,-2.3563,-2.3578,-2.3601,-2.3651,-2.3675,-2.3706,-2.3744,-2.3756,-2.3803,-2.3845,-2.3883,-2.3937,-2.3956,-2.3996,-2.4004,-2.3982,-2.3986,-2.3998,-2.3997,-2.4025,-2.4032,-2.4022,-2.4022,-2.4022,0,-2.3424,-2.3448,-2.3509,-2.3532,-2.356,-2.3596,-2.3623,-2.3664,-2.3691,-2.3744,-2.3762,-2.3806,-2.3844,-2.3909,-2.3948,-2.399,-2.4001,-2.4008,-2.4007,-2.3999,-2.4003,-2.4002,-2.4006,-2.4008,-2.4007,-2.4007,-2.4007,0,-2.3426,-2.3446,-2.3484,-2.353,-2.3562,-2.36,-2.3638,-2.3656,-2.3704,-2.3733,-2.3777,-2.3806,-2.3864,-2.3907,-2.3955,-2.3983,-2.4004,-2.4008,-2.4013,-2.4005,-2.3992,-2.4001,-2.3982,-2.4007,-2.4007,-2.4007,-2.4007,-2.4007,-2.3422,-2.3446,-2.3494,-2.3536,-2.357,-2.3607,-2.3634,-2.3669,-2.3707,-2.3758,-2.378,-2.3825,-2.387,-2.3937,-2.3965,-2.4001,-2.4005,-2.4012,-2.4014,-2.4016,-2.4016,-2.3985,-2.4009,-2.4009,-2.4009,-2.4009,-2.4009,0,-2.3427,-2.3461,-2.35,-2.3555,-2.3588,-2.3607,-2.3652,-2.3679,-2.3718,-2.3759,-2.3797,-2.3849,-2.3892,-2.3936,-2.3982,-2.4003,-2.4014,-2.4014,-2.4013,-2.402,-2.4008,-2.3999,-2.4005,-2.4005,-2.4005,-2.4005,-2.4005,-2.4005,-2.3434,-2.3477,-2.3503,-2.3563,-2.3596,-2.3642,-2.3666,-2.37,-2.3734,-2.3791,-2.3828,-2.3857,-2.39,-2.3951,-2.3992,-2.4004,-2.402,-2.4018,-2.4032,-2.402,-2.402,-2.402,-2.4013,-2.4021,-2.4021,-2.4042,-2.4042,-2.4042]}]]